PHASE 3B (AO-10)

Last updated on Fri Dec 19 2025 00:03:11 GMT+0000 (Coordinated Universal Time)

1 14129U 83058B 25351.74130077 -.00000089 00000+0 00000+0 0 9992 2 14129 26.0452 250.3258 6064658 65.0289 344.8583 2.05873801291751
UTC large
Height (km)
Speed (km/s)
/
Latitude / Longitude
Inclination (degrees)
Orbital Period (minutes)
Azimuth
Elevation
Range (km)
Doppler Factor

Next 0 passes for location: London (51.5072 / 0.1276)

Sorry there are no passes over London.